N9XRG Weather Reports


time (UTC)temp
C
wind
direction
speed
KPH
gust
KPH
rain 1hr
cm
rain 24hr
cm
rain mn
cm
humidity
%
barometer
mb
20260504081950 6 115 4.8 4.8 0.00 0.00 0.00 91 1007.1
20260504081448 6 111 3.2 4.8 0.00 0.00 0.00 92 1007.2
20260504080943 6 109 3.2 4.8 0.00 0.00 0.00 92 1007.4
20260504080440 6 107 3.2 4.8 0.00 0.00 0.00 93 1007.4
20260504070408 5 95 3.2 4.8 0.00 0.00 0.00 93 1007.9
20260504050254 7 94 3.2 4.8 0.00 0.00 0.00 84 1009.2
20260504045751 7 101 3.2 3.2 0.00 0.00 0.00 84 1009.2
20260504045250 8 109 3.2 4.8 0.00 0.00 0.00 83 1009.3
20260504044748 8 89 1.6 4.8 0.00 0.00 0.00 83 1009.2
20260504044246 7 65 3.2 6.4 0.00 0.00 0.00 84 1009.2
20260504043743 7 109 3.2 4.8 0.00 0.00 0.00 84 1009.2
20260504043239 7 132 3.2 4.8 0.00 0.00 0.00 84 1009.4
20260504042737 7 96 1.6 3.2 0.00 0.00 0.00 84 1009.3
20260504042233 7 82 3.2 3.2 0.00 0.00 0.00 84 1009.4
20260504041730 7 99 3.2 4.8 0.00 0.00 0.00 83 1009.4
20260504041226 8 109 3.2 4.8 0.00 0.00 0.00 83 1009.6
20260504040722 8 64 3.2 3.2 0.00 0.00 0.00 82 1009.7
20260504040219 8 66 3.2 4.8 0.00 0.00 0.00 81 1009.6
20260504035716 8 96 3.2 4.8 0.00 0.00 0.00 81 1009.4
20260504035213 8 96 3.2 3.2 0.00 0.00 0.00 80 1009.7
20260504034710 8 101 1.6 6.4 0.00 0.00 0.00 80 1009.6
20260504034208 8 102 4.8 4.8 0.00 0.00 0.00 80 1009.8
20260504033705 8 97 3.2 4.8 0.00 0.00 0.00 80 1009.9
20260504033202 8 137 6.4 6.4 0.00 0.00 0.00 81 1009.9
20260504032659 8 94 3.2 4.8 0.00 0.00 0.00 81 1010.0
20260504032156 8 93 3.2 4.8 0.00 0.00 0.00 81 1010.1
20260504031653 8 109 3.2 4.8 0.00 0.00 0.00 83 1010.0
20260504031149 8 94 3.2 4.8 0.00 0.00 0.00 83 1010.0
20260504030646 8 107 8.0 8.0 0.00 0.00 0.00 83 1010.1
20260504030143 8 95 3.2 4.8 0.00 0.00 0.00 83 1010.2
20260504025640 7 86 3.2 4.8 0.00 0.00 0.00 83 1010.1
20260504025136 7 86 3.2 4.8 0.00 0.00 0.00 84 1010.2
20260504024634 8 82 3.2 4.8 0.00 0.00 0.00 83 1010.3
20260504024130 8 115 1.6 3.2 0.00 0.00 0.00 83 1010.2
20260504023627 8 78 3.2 4.8 0.00 0.00 0.00 82 1010.3
20260504023123 8 72 3.2 3.2 0.00 0.00 0.00 82 1010.4
20260504022619 8 86 3.2 3.2 0.00 0.00 0.00 82 1010.3
20260504022115 8 86 3.2 3.2 0.00 0.00 0.00 82 1010.5
20260504021614 8 91 3.2 3.2 0.00 0.00 0.00 81 1010.3
20260504021110 8 77 3.2 4.8 0.00 0.00 0.00 81 1010.2
20260504020607 8 57 3.2 4.8 0.00 0.00 0.00 80 1010.2
20260504020103 8 142 4.8 4.8 0.00 0.00 0.00 81 1010.6
20260504015600 8 115 4.8 6.4 0.00 0.00 0.00 81 1010.2
20260504015055 8 84 3.2 4.8 0.00 0.00 0.00 80 1010.4
20260504014552 9 99 3.2 4.8 0.00 0.00 0.00 80 1010.4
20260504014049 9 88 3.2 4.8 0.00 0.00 0.00 79 1010.5
20260504013547 9 98 3.2 4.8 0.00 0.00 0.00 78 1010.4
20260504013044 10 109 3.2 4.8 0.00 0.00 0.00 78 1010.3
20260504012541 10 108 3.2 6.4 0.00 0.00 0.00 78 1010.4
20260504012039 10 126 3.2 4.8 0.00 0.00 0.00 77 1010.2
20260504011535 10 113 3.2 8.0 0.00 0.00 0.00 77 1010.4
20260504011031 10 113 3.2 6.4 0.00 0.00 0.00 77 1010.3
20260504010527 10 138 6.4 6.4 0.00 0.00 0.00 77 1010.4
20260504010023 10 92 3.2 6.4 0.00 0.00 0.00 76 1010.6
20260504005520 10 125 4.8 4.8 0.00 0.00 0.00 76 1010.4
20260504005018 10 123 3.2 6.4 0.00 0.00 0.00 74 1010.5
20260504004516 10 138 3.2 6.4 0.00 0.00 0.00 73 1010.5
20260504004012 10 121 3.2 4.8 0.00 0.00 0.00 74 1010.4
20260504003508 10 116 3.2 6.4 0.00 0.00 0.00 74 1010.6
20260504003006 10 120 3.2 9.7 0.00 0.00 0.00 73 1010.5
20260504002502 10 89 0.0 6.4 0.00 0.00 0.00 74 1010.6
20260504001959 10 125 3.2 8.0 0.00 0.00 0.00 73 1010.6
20260504001457 10 101 1.6 8.0 0.00 0.00 0.00 73 1010.5
20260504000953 10 114 4.8 6.4 0.00 0.00 0.00 74 1010.6
20260504000450 10 97 3.2 4.8 0.00 0.00 0.00 74 1010.7
20260503235948 10 122 3.2 6.4 0.00 0.00 0.00 74 1010.9
20260503235445 10 135 3.2 4.8 0.00 0.00 0.00 74 1010.8
20260503234942 10 110 3.2 4.8 0.00 0.00 0.00 73 1011.0
20260503234440 10 146 4.8 4.8 0.00 0.00 0.00 75 1011.2
20260503233938 10 139 8.0 9.7 0.00 0.00 0.00 74 1010.9
20260503233434 10 100 4.8 6.4 0.00 0.00 0.00 74 1011.0
20260503232931 10 114 4.8 4.8 0.00 0.00 0.00 75 1011.0
20260503232428 10 83 3.2 6.4 0.00 0.00 0.00 75 1011.0
20260503231926 10 60 3.2 8.0 0.00 0.00 0.00 74 1011.2
20260503231423 10 148 3.2 6.4 0.00 0.00 0.00 74 1011.3
20260503230919 10 160 4.8 6.4 0.00 0.00 0.00 74 1011.2
20260503230416 10 129 3.2 4.8 0.00 0.00 0.00 74 1011.4
20260503225914 10 94 4.8 8.0 0.00 0.00 0.00 75 1011.6
20260503225409 10 99 3.2 6.4 0.00 0.00 0.00 76 1011.2
20260503224906 10 109 6.4 8.0 0.00 0.00 0.00 76 1011.7
20260503224403 10 160 4.8 9.7 0.00 0.00 0.00 77 1011.7
20260503223900 10 138 4.8 6.4 0.00 0.00 0.00 77 1011.4
20260503223358 10 102 3.2 6.4 0.00 0.00 0.00 78 1011.5
20260503222853 10 94 4.8 6.4 0.00 0.00 0.00 77 1011.5
20260503222352 10 92 4.8 8.0 0.00 0.00 0.00 78 1011.7
20260503221850 10 111 4.8 9.7 0.00 0.00 0.00 77 1011.7
20260503221348 10 74 6.4 6.4 0.00 0.00 0.00 78 1011.8
20260503220844 10 144 6.4 8.0 0.00 0.00 0.00 77 1011.8
20260503220341 10 118 9.7 9.7 0.00 0.00 0.00 78 1012.0
20260503215838 10 95 4.8 8.0 0.00 0.00 0.00 77 1011.8
20260503215335 10 128 4.8 8.0 0.00 0.00 0.00 78 1011.7
20260503214833 10 108 1.6 8.0 0.00 0.00 0.00 79 1011.8
20260503214330 10 114 1.6 6.4 0.00 0.00 0.00 78 1011.9
20260503213827 10 103 3.2 12.9 0.00 0.00 0.00 79 1012.0
20260503213325 10 125 4.8 9.7 0.00 0.00 0.00 79 1012.1
20260503212821 10 127 6.4 6.4 0.00 0.00 0.00 79 1012.3
20260503212319 10 127 4.8 6.4 0.00 0.00 0.00 79 1012.1
20260503211816 10 108 3.2 9.7 0.00 0.00 0.00 77 1012.4
20260503211313 10 157 6.4 8.0 0.00 0.00 0.00 77 1012.5
20260503210813 10 156 3.2 9.7 0.00 0.00 0.00 78 1012.8
20260503210311 10 161 6.4 6.4 0.00 0.00 0.00 78 1012.7
20260503205806 10 122 6.4 12.9 0.00 0.00 0.00 76 1013.2
20260503205304 10 154 4.8 6.4 0.00 0.00 0.00 74 1013.2
20260503204759 11 106 4.8 6.4 0.00 0.00 0.00 71 1013.4
20260503204257 11 47 3.2 8.0 0.00 0.00 0.00 69 1013.6
20260503203754 11 67 4.8 14.5 0.00 0.00 0.00 68 1013.6
20260503203251 11 126 8.0 19.3 0.00 0.00 0.00 67 1013.7
20260503202748 11 156 8.0 20.9 0.00 0.00 0.00 65 1013.6
20260503202246 12 66 6.4 9.7 0.00 0.00 0.00 64 1013.8
20260503201744 12 140 11.3 11.3 0.00 0.00 0.00 62 1014.1
20260503201241 12 87 3.2 17.7 0.00 0.00 0.00 61 1014.0
20260503200737 13 169 9.7 11.3 0.00 0.00 0.00 58 1013.9
20260503200233 13 148 12.9 22.5 0.00 0.00 0.00 59 1013.8
20260503195731 13 91 6.4 20.9 0.00 0.00 0.00 58 1013.7
20260503195227 13 111 8.0 16.1 0.00 0.00 0.00 56 1014.0
20260503194726 13 143 19.3 19.3 0.00 0.00 0.00 54 1013.7
20260503194221 14 140 6.4 22.5 0.00 0.00 0.00 52 1013.5
20260503193717 15 30 11.3 14.5 0.00 0.00 0.00 47 1013.6
20260503193213 16 114 6.4 9.7 0.00 0.00 0.00 47 1013.2
20260503192709 16 174 6.4 11.3 0.00 0.00 0.00 46 1013.1
20260503192204 16 65 3.2 9.7 0.00 0.00 0.00 45 1013.3
20260503191701 16 95 6.4 14.5 0.00 0.00 0.00 44 1013.4
20260503191158 16 82 6.4 14.5 0.00 0.00 0.00 43 1013.3
20260503190655 16 144 6.4 14.5 0.00 0.00 0.00 45 1013.3
20260503190152 15 111 11.3 14.5 0.00 0.00 0.00 44 1013.2
20260503185649 16 117 8.0 17.7 0.00 0.00 0.00 42 1013.6
20260503185144 16 139 11.3 16.1 0.00 0.00 0.00 42 1013.7
20260503184639 16 121 6.4 19.3 0.00 0.00 0.00 42 1013.6
20260503184136 16 111 6.4 14.5 0.00 0.00 0.00 42 1013.7
20260503183632 16 160 3.2 14.5 0.00 0.00 0.00 41 1013.7
20260503183130 16 26 3.2 11.3 0.00 0.00 0.00 41 1013.8
20260503182628 16 172 6.4 16.1 0.00 0.00 0.00 41 1013.6
20260503182126 16 129 4.8 9.7 0.00 0.00 0.00 44 1013.6
20260503181622 16 54 8.0 12.9 0.00 0.00 0.00 42 1013.9
20260503181119 16 114 6.4 14.5 0.00 0.00 0.00 42 1014.0
20260503180616 16 126 11.3 16.1 0.00 0.00 0.00 41 1013.9
20260503180114 17 160 1.6 17.7 0.00 0.00 0.00 39 1014.3
20260503175611 17 158 9.7 14.5 0.00 0.00 0.00 40 1013.9
20260503175108 17 83 4.8 11.3 0.00 0.00 0.00 40 1014.3
20260503174605 17 158 3.2 8.0 0.00 0.00 0.00 39 1014.5
20260503174101 17 75 6.4 9.7 0.00 0.00 0.00 40 1014.2
20260503173556 16 122 3.2 16.1 0.00 0.00 0.00 43 1014.6
20260503173053 17 187 3.2 9.7 0.00 0.00 0.00 41 1014.7
20260503172550 17 62 6.4 11.3 0.00 0.00 0.00 38 1014.8
20260503172048 17 101 6.4 12.9 0.00 0.00 0.00 38 1014.8
20260503171544 16 83 9.7 16.1 0.00 0.00 0.00 40 1014.9
20260503171041 16 92 9.7 14.5 0.00 0.00 0.00 38 1014.9
20260503170537 16 91 9.7 11.3 0.00 0.00 0.00 41 1014.9
20260503150930 14 105 4.8 12.9 0.00 0.00 0.00 43 1016.3
20260503150427 15 132 8.0 17.7 0.00 0.00 0.00 43 1016.1
20260503131320 12 164 4.8 11.3 0.00 0.00 0.00 50 1016.7
20260503130817 11 133 6.4 17.7 0.00 0.00 0.00 50 1016.6
20260503130315 11 131 8.0 9.7 0.00 0.00 0.00 51 1016.8
20260503110708 2 115 4.8 8.0 0.00 0.00 0.00 79 1016.3
20260503110205 2 111 3.2 4.8 0.00 0.00 0.00 80 1016.4
20260503100132 1 110 3.2 3.2 0.00 0.00 0.00 84 1016.2